Theta_e
329 332 351 354 353 353 352 352 352 351 350 351 352 351 351 350 350 350 349 348 346 343 344 340 340 340 342 344 344 349 348 347 347 347 347 348 348 348 349 348 348 346 350
330 335 349 353 354 353 353 354 353 352 351 351 351 352 351 351 350 349 347 346 344 342 341 339 337 337 338 340 343 345 345 344 343 342 342 344 346 347 347 345 347 345 349
331 339 346 350 354 353 353 353 353 352 351 352 351 351 350 350 349 348 346 343 341 340 339 337 335 334 335 336 338 341 342 341 340 341 340 334 337 344 345 343 344 344 345
333 341 344 347 352 353 353 353 352 352 352 351 350 350 349 349 349 347 344 341 340 338 337 335 333 331 331 333 334 336 337 337 338 338 334 334 336 341 341 341 342 342 342
335 340 343 346 350 352 352 352 351 351 350 351 350 349 349 349 347 345 341 340 336 336 335 332 330 327 327 329 331 333 334 336 337 335 333 332 332 337 339 337 337 338 339
334 338 342 347 351 352 352 352 351 350 350 350 350 349 349 346 343 342 339 337 335 333 333 330 327 325 324 325 329 331 336 338 333 329 330 332 330 338 337 336 335 336 338
331 335 339 346 349 350 351 352 351 351 350 350 351 350 347 344 340 338 336 334 335 332 331 328 326 323 322 323 327 328 335 332 326 325 327 327 330 336 335 334 333 334 335
330 333 337 338 342 346 348 349 350 350 349 349 349 348 345 341 339 337 335 333 334 331 330 327 324 321 320 321 323 324 329 327 322 322 323 325 334 334 333 331 331 332 332
327 331 334 338 339 337 341 343 346 347 346 345 347 345 342 340 339 338 336 334 332 330 328 325 322 319 317 318 318 321 323 323 316 317 321 322 333 332 331 330 330 330 327
324 327 330 335 340 340 338 335 339 341 341 341 341 339 335 335 334 333 331 333 330 329 327 325 322 319 317 314 313 313 314 318 312 313 315 318 329 328 328 328 328 327 326
317 323 326 332 338 340 336 334 332 334 335 336 334 331 329 328 328 326 325 329 331 330 326 325 322 319 315 309 309 309 305 300 307 308 310 320 325 324 325 325 325 324 327
312 316 322 326 335 337 337 338 336 332 332 332 332 330 328 326 327 325 321 326 329 328 327 325 322 317 305 292 289 298 293 294 300 302 305 319 322 323 323 324 325 324 324
306 312 318 323 329 334 333 336 336 335 331 329 329 328 328 326 324 322 321 318 316 316 315 315 310 306 301 295 293 289 291 291 292 296 301 313 320 324 323 325 325 324 324
296 300 310 321 325 332 332 333 334 334 332 330 329 328 326 324 322 320 319 317 316 314 311 308 306 303 301 296 292 292 290 290 290 291 295 304 313 321 324 325 325 325 325
296 299 300 315 322 325 330 331 331 332 332 331 330 328 326 323 321 319 318 317 315 313 312 309 304 303 301 297 293 292 291 290 290 290 291 300 306 314 321 328 327 326 326
296 298 303 306 320 323 324 328 328 329 330 329 324 324 326 324 322 319 317 316 315 313 310 307 304 302 300 296 295 293 291 290 290 290 290 292 304 308 314 321 329 327 327
294 297 301 312 318 321 321 324 325 324 325 326 325 325 324 322 321 319 317 315 314 311 305 303 301 299 298 296 293 292 291 291 290 290 290 291 295 303 307 313 322 329 327
293 295 300 311 317 319 320 321 321 321 319 319 321 322 322 322 322 319 317 315 311 308 308 306 304 303 298 295 293 293 291 290 290 290 290 290 292 296 302 309 316 322 327
292 294 296 301 309 315 315 313 309 306 304 303 303 305 310 315 317 316 314 311 309 309 308 306 304 300 299 296 294 293 291 290 290 290 289 290 290 293 297 304 309 311 316
291 293 294 296 300 307 307 305 303 300 299 298 297 298 299 303 307 312 311 310 309 307 306 304 301 298 296 294 293 292 291 290 289 289 289 290 290 290 293 297 299 302 310
290 291 292 293 294 298 299 301 297 295 295 294 295 294 295 295 296 299 303 304 305 304 303 302 298 297 297 293 293 292 290 290 288 288 288 288 288 289 290 294 296 298 301
288 289 290 290 291 293 294 293 293 292 291 290 290 290 290 290 291 293 293 295 296 297 298 298 297 296 294 293 293 290 286 289 286 286 286 287 288 288 290 291 294 296 296
286 287 289 289 290 290 291 291 291 290 288 287 287 287 287 287 288 289 289 290 291 292 291 292 292 292 290 291 291 292 290 286 283 287 286 285 286 287 288 290 292 294 295
284 286 287 288 288 288 289 288 286 284 283 284 285 284 285 286 285 286 287 287 287 288 288 288 290 289 289 288 289 291 290 288 287 284 286 288 287 286 286 288 290 292 293
284 283 284 286 286 286 286 285 284 283 283 282 282 282 283 284 284 284 285 285 285 285 285 285 286 287 288 287 286 286 285 286 287 286 286 285 286 288 287 287 289 290 291
283 282 282 284 284 285 284 284 282 281 281 281 281 281 281 282 282 282 283 283 283 283 284 284 285 285 287 287 286 286 285 286 285 284 283 288 289 289 287 287 287 289 290
Wind_Speed
6 6 10 11 13 12 12 11 10 9 11 11 12 12 13 12 12 13 13 13 12 11 12 11 12 12 12 11 10 13 14 13 13 14 15 13 14 14 16 16 10 7 12
6 7 11 11 13 13 12 10 10 9 10 11 11 10 11 12 13 14 13 12 11 10 11 11 12 11 11 10 10 10 11 12 12 12 11 10 12 13 15 16 13 12 14
6 8 8 10 11 12 11 11 11 10 11 12 12 11 10 10 12 12 12 10 10 9 9 10 11 10 10 9 9 8 8 8 8 8 9 5 6 10 13 14 13 13 14
6 7 6 9 11 13 12 11 11 10 10 11 11 11 10 10 12 10 11 11 11 10 9 10 11 10 9 8 7 7 7 7 6 5 5 5 5 10 11 10 12 13 13
7 6 6 10 10 12 11 13 12 10 10 11 10 10 10 9 11 9 8 8 6 9 8 9 10 9 8 9 8 7 6 6 6 4 4 5 4 7 9 10 10 11 12
6 6 8 11 11 11 13 11 12 11 10 10 10 10 11 9 10 9 9 5 4 6 7 8 9 9 9 9 8 9 6 8 8 5 5 4 4 8 9 9 10 10 9
5 5 6 11 10 10 13 11 11 11 10 11 11 11 7 11 10 8 6 2 4 3 5 7 8 9 9 8 8 9 8 9 5 5 5 4 3 7 7 7 8 8 8
6 5 5 8 9 9 11 12 9 9 8 9 9 10 11 12 11 9 6 2 3 2 4 5 7 7 8 8 8 8 8 8 5 4 4 3 4 5 5 5 6 7 7
5 5 5 6 6 8 9 10 10 8 7 8 9 11 11 11 11 9 7 3 3 1 2 4 5 5 5 7 7 7 7 7 4 3 3 3 5 4 4 4 5 6 6
4 5 6 6 9 6 5 8 10 9 7 6 8 10 9 8 9 9 7 5 2 1 2 3 4 5 6 8 7 6 6 6 3 3 2 3 4 3 3 3 4 5 5
2 4 3 4 10 8 3 3 4 5 5 5 7 9 7 4 5 6 5 4 2 2 2 2 3 5 8 9 9 9 7 3 3 2 2 6 4 2 1 1 1 2 5
4 4 4 4 8 8 4 3 3 2 2 3 3 5 4 4 4 4 3 4 3 1 3 2 2 8 7 4 4 7 4 4 3 3 3 8 7 4 2 1 1 1 2
7 5 5 6 6 8 5 3 2 2 2 2 3 3 3 3 3 3 2 2 2 4 2 4 5 4 4 4 4 3 4 4 3 3 5 10 9 8 5 3 3 3 1
9 8 7 7 7 8 3 3 3 2 2 2 3 5 4 2 4 3 2 2 1 2 1 2 2 2 3 3 4 4 4 3 3 3 5 11 12 9 9 6 5 6 4
8 9 9 6 6 7 8 4 3 3 3 3 3 4 4 4 4 3 3 2 2 2 1 1 1 1 1 2 2 2 4 4 5 3 3 9 11 11 11 12 8 7 8
11 11 11 5 5 6 5 5 3 2 3 3 2 3 5 4 4 4 3 3 2 2 2 2 1 1 1 2 4 3 4 4 4 4 3 4 10 11 12 12 13 10 11
10 11 11 5 6 7 7 5 4 3 2 3 3 4 1 1 3 3 1 2 1 1 2 2 1 1 2 2 4 4 4 4 4 4 4 4 5 9 10 12 13 15 12
11 13 12 10 8 9 9 7 7 8 8 8 8 7 7 4 3 2 2 2 3 2 0 1 0 2 2 2 3 4 4 4 6 6 4 4 4 4 7 11 13 14 16
11 12 13 13 13 13 14 12 12 14 11 9 10 10 12 11 8 4 4 3 3 3 2 3 2 2 3 3 4 4 4 4 5 4 6 6 5 5 3 8 11 12 15
11 12 13 11 13 12 11 11 10 11 10 10 11 11 14 11 13 9 7 6 5 4 3 2 2 0 1 3 4 5 5 5 5 5 6 4 5 6 5 5 5 5 13
14 15 15 15 12 8 6 6 7 7 8 11 10 14 13 12 13 12 9 10 7 5 4 4 3 4 2 2 3 4 4 5 5 4 3 4 5 4 6 5 4 3 5
12 13 14 14 13 11 6 4 4 5 7 7 8 12 13 14 14 12 10 9 11 7 10 8 5 3 2 3 3 2 5 5 4 2 2 3 6 3 5 5 5 5 5
13 12 13 13 13 12 11 5 4 5 4 6 8 9 11 12 12 12 11 9 8 7 7 6 7 6 4 3 2 2 4 4 5 2 2 1 3 2 5 5 6 6 5
9 9 12 13 13 12 11 12 15 9 8 4 3 4 7 11 12 11 10 10 9 6 9 6 6 4 4 3 4 2 2 1 3 7 3 4 4 4 5 4 5 6 6
7 7 7 11 13 11 12 10 9 10 6 3 4 8 8 7 9 10 10 9 9 7 6 8 8 7 3 2 1 3 2 2 4 5 11 4 3 5 5 4 5 5 6
6 6 6 11 10 8 10 10 11 10 7 7 6 6 5 4 5 8 7 6 5 6 6 5 5 7 6 5 2 2 2 3 3 3 5 11 11 6 4 5 5 5 5
Wind_Direction
240 188 183 180 160 157 158 153 140 128 122 117 118 120 119 116 110 102 87 79 74 66 62 58 57 58 59 59 69 58 66 67 69 66 65 61 64 63 51 41 40 44 52
160 170 179 175 165 162 160 153 139 131 126 122 119 121 125 125 112 103 86 76 67 63 58 52 53 50 51 54 60 67 68 69 62 62 62 46 56 59 53 37 32 49 52
142 159 170 176 169 165 161 154 144 143 141 137 126 122 121 114 109 99 98 90 76 61 54 50 51 50 47 47 49 56 61 61 56 55 63 55 53 60 50 42 36 38 37
146 153 164 179 173 170 165 154 147 153 152 141 135 135 132 130 122 119 108 88 68 55 43 44 42 39 44 40 43 52 40 38 46 60 46 50 56 63 60 44 35 32 29
147 150 161 176 184 176 163 157 160 163 163 151 153 149 151 153 107 97 87 56 46 49 39 39 40 32 33 32 30 42 35 45 47 109 71 65 53 66 63 56 41 31 20
152 155 164 176 185 174 157 159 166 169 171 162 164 156 156 121 99 84 59 46 19 40 29 34 37 35 32 31 27 33 42 73 67 74 71 59 62 68 60 57 49 36 26
160 157 164 177 186 175 158 166 170 175 180 181 172 161 146 115 111 107 102 48 27 25 20 34 35 31 26 33 38 36 65 73 73 61 64 49 55 61 54 53 51 39 32
164 165 168 178 185 182 171 168 179 188 196 199 178 144 134 130 133 130 124 106 70 6 10 39 43 34 30 35 40 34 61 69 63 59 43 31 21 57 51 47 52 45 33
164 166 175 180 197 190 188 174 180 201 219 188 167 145 147 145 144 136 130 117 108 314 344 62 53 39 36 46 49 44 62 77 75 48 25 12 349 34 39 37 49 47 20
192 192 189 180 195 201 213 184 182 191 203 172 158 154 149 148 146 143 143 148 134 283 329 75 53 28 26 27 32 37 56 64 69 51 18 325 12 34 31 37 47 41 26
281 242 216 194 200 204 194 203 187 183 182 186 156 142 132 133 142 143 148 154 147 90 318 90 54 37 33 15 19 17 31 15 14 5 341 320 335 340 359 61 65 52 70
311 276 237 202 206 207 199 183 186 176 178 159 146 154 149 151 139 136 129 136 122 83 352 148 82 75 43 18 6 6 6 358 359 339 320 327 327 310 297 291 284 325 81
306 289 229 200 191 204 193 168 154 144 138 140 150 142 143 122 107 100 86 43 50 39 34 49 57 57 42 28 10 5 351 351 344 333 325 332 324 311 291 262 274 275 201
326 302 285 209 176 190 170 173 148 151 152 183 198 160 134 139 139 146 122 101 22 8 76 87 74 65 43 23 10 350 347 345 336 328 325 334 327 314 296 258 260 263 230
337 318 307 239 181 164 174 168 160 158 149 164 150 150 148 160 154 153 171 180 182 165 144 157 107 32 1 349 339 351 334 331 329 325 318 323 327 312 304 303 263 256 252
341 335 321 269 172 144 130 154 138 127 142 145 172 189 171 174 174 180 169 193 208 173 157 173 190 232 293 334 317 321 310 311 309 310 307 314 316 313 301 293 291 258 262
344 335 353 21 123 109 101 97 85 76 73 53 41 55 13 47 146 162 167 220 280 91 123 131 111 31 330 330 299 302 302 290 284 283 286 283 295 301 299 289 285 294 261
360 5 9 26 72 84 81 69 63 55 52 40 32 36 35 33 18 7 357 12 27 80 161 42 320 287 275 289 302 303 300 299 290 277 271 273 276 284 298 295 290 290 297
7 13 26 33 44 72 78 75 67 58 51 41 36 27 22 28 31 50 46 44 57 55 27 4 1 1 331 325 306 294 279 272 270 278 269 263 259 262 272 285 290 297 294
20 29 35 36 39 65 73 71 66 62 52 45 38 37 31 22 24 35 41 32 32 36 21 11 351 75 255 299 304 296 285 267 255 248 255 268 268 268 263 271 289 294 298
35 37 34 43 27 41 52 66 58 61 52 47 38 33 37 40 36 30 28 27 23 32 19 19 359 350 328 354 314 322 291 271 282 293 291 269 277 291 293 289 284 290 299
38 38 41 43 39 40 44 57 75 81 59 60 44 41 34 33 32 40 38 32 25 21 24 18 23 342 324 5 334 281 342 329 351 334 339 285 286 289 280 273 268 270 273
38 35 45 45 50 50 51 61 63 63 53 44 34 38 31 37 37 38 36 35 33 38 30 16 9 9 339 335 1 318 334 297 320 336 306 314 326 279 277 277 273 259 256
33 38 49 53 46 43 45 67 71 75 77 39 54 43 40 36 35 33 35 35 38 33 30 11 7 8 3 332 330 354 262 301 310 322 327 328 334 303 289 290 276 272 258
35 33 50 64 59 48 55 63 73 75 71 44 34 51 39 33 36 33 31 28 29 24 18 17 11 11 11 343 334 331 325 281 229 239 296 311 308 274 262 258 253 257 250
54 54 58 72 62 58 68 70 78 82 71 65 44 46 34 12 24 27 26 27 22 18 14 7 1 6 3 350 328 308 255 287 298 275 279 297 293 287 257 258 253 254 252